Find Starlink 32212

NORAD ID: 60256 Int'l Des: 2024-131 Owner: SPXS Country: US Constellation: starlink operational
LEOCIRCULAR

Current View

Loading 3D Globe...

About Starlink 32212

Starlink 32212 (NORAD 60256) is a starlink constellation satellite (v2 mini) launched Jul 27, 2024 by SPXS of US. It operates in LEO, CIRCULAR orbit with a mass of 730.00 kg.

Upcoming Passes

Passes for default location (London). Set your location on the main map for personalized predictions.

Altitude History

Loading altitude history...

Two-Line Element Set

1 60256U 24131B 26236.73086563 .00063413 00000-0 17801-2 0 9993
2 60256 53.1620 350.6976 0002332 354.0148 6.0828 15.35982041117460
Epoch: Aug 24, 2026 • Age: 20 hours

Current Status

Altitude 475.3 km
Apogee / Perigee N/A
Velocity 7.63 km/s
Sub-Earth Point -50.02°S, 55.06°E
Launch Date Jul 27, 2024
Age 2 years
Type internet

Technical Details

Classification Payload
Mass 730.00 kg
Dry Mass 700.00 kg
Total Mass 730.00 kg
Length 0.30 m
Diameter 4.10 m
Span 29.00 m
Shape Box + pan
Manufacturer SPXS
Bus Type Starlink V2M
Phase Status In Orbit
Owner/State SPXS/US

Most Searched